Regional Weather Roundup
Issued by NWS Jackson, KY

Home | Current Version | Previous Version | Text Only | Print | Product List | Glossary Off
Versions: 1 2 3 4 5 6 7 8 9 10 11 12 13 14 15 16 17 18 19 20 21 22 23 24 25 26 27 28 29 30 31 32 33 34 35 36 37 38 39 40 41 42 43 44 45 46 47 48 49 50

000
ASUS43 KJKL 181719
RWRJKL

EAST KENTUCKY HOURLY WEATHER ROUNDUP
NATIONAL WEATHER SERVICE JACKSON KY
100 PM EDT FRI APR 18 2014

NOTE: "FAIR" INDICATES FEW OR NO CLOUDS BELOW 12,000 FEET WITH
NO SIGNIFICANT WEATHER AND/OR OBSTRUCTIONS TO VISIBILITY.

* THESE REPORTS ARE NOT UNDER NWS QUALITY CONTROL AND MAY NOT
  REPORT WEATHER SUCH AS PRECIPITATION AND FOG.

KYZ079-080-083-085-087-088-110-112-115-119-120-181800
...EASTERN KENTUCKY...

CITY           SKY/WX    TMP DP  RH WIND       PRES   REMARKS
JACKSON        PTSUNNY   66  37  34 SW6       30.32F
LONDON         CLOUDY    63  36  36 CALM      30.33F
SOMERSET*      CLOUDY    63  37  39 CALM      30.33F
MONTICELLO*    CLOUDY   N/A N/A N/A CALM      30.33F
MIDDLESBORO*   CLOUDY    61  32  34 CALM      30.34F
HARLAN APT*    CLOUDY    63  32  31 CALM      30.32F
BLACK MTN*       N/A     52  37  58 N6          N/A
PIKEVILLE APT* MOSUNNY   63  37  39 SE3       30.32F
BIG SANDY*     PTSUNNY   66  38  35 NW5       30.31F
ASHLAND*       SUNNY    N/A N/A N/A CALM        N/A
MOREHEAD APT*  SUNNY     66  37  34 W7        30.32F
$$

KYZ035-036-041-042-044-050-067-078-099-181800
...CENTRAL KENTUCKY...

CITY           SKY/WX    TMP DP  RH WIND       PRES   REMARKS
MT STERLING*   PTSUNNY   66  43  42 W3        30.32F
FLEMING/MASON* PTSUNNY   65  37  34 W7        30.31F
DANVILLE*      CLOUDY    64  43  45 NW6       30.32F
LEXINGTON      PTSUNNY   67  41  38 W7        30.31F
FRANKFORT      PTSUNNY   66  37  34 W8        30.29F
$$

KYZ091>093-OHZ055-061-077-WVZ005-015-034-035-042-181800
...SOUTHERN OHIO/WEST VIRGINIA...

CITY           SKY/WX    TMP DP  RH WIND       PRES   REMARKS
COVINGTON      PTSUNNY   67  36  31 NW5       30.29F
COLUMBUS       PTSUNNY   66  34  30 CALM      30.28F
DAYTON         PTSUNNY   66  39  37 VRB3      30.29F
WILMINGTON     PTSUNNY   65  36  34 W3        30.28F
HUNTINGTON     PTSUNNY   67  36  31 VRB6      30.30F
CHARLESTON     PTSUNNY   69  35  28 W10G20    30.29F
PINEVILLE*     CLOUDY    63  36  36 MISG      30.38F
BECKLEY        CLOUDY    60  28  29 NW7       30.33F
BLUEFIELD      CLOUDY    56  29  35 CALM      30.35F
$$

VAZ002-007-008-TNZ017-027-036-066-071-181800
...SOUTHWEST VIRGINIA/EAST TENNESSEE...

CITY           SKY/WX    TMP DP  RH WIND       PRES   REMARKS
WISE*          CLOUDY    59  32  36 CALM      30.35F
ABINGDON*      CLOUDY    56  31  38 CALM      30.36F
BRISTOL        CLOUDY    56  30  37 E3        30.35F
KNOXVILLE      CLOUDY    57  38  48 CALM      30.33S
OAK RIDGE      CLOUDY    59  35  40 E6        30.34F
CROSSVILLE     CLOUDY    59  36  42 E5        30.32F
NASHVILLE      CLOUDY    63  40  42 CALM      30.30F
$$

...KEY TO REMARKS...
VSB - VISIBILITY IN MILES
WCI - WIND CHILL INDEX
HX  - HEAT INDEX

$$



USA.gov is the U.S. government's official web portal to all federal, state and local government web resources and services.